User: anonymous
Location: Caltech
(34.1382°N, 118.1253°W)
Time: 11:00:08
(UTC-07:00)
Language:

NOSS 3-4 (C) - Orbit

View from above orbital plane
View from above orbital plane
View from above satellite
View from above satellite

Ground track
Ground track

The orbit data is extracted from the following two-line orbital elements,

1 31708U 07027C   14256.78242013 0.00000000  00000-0  00000-0 0    03
2 31708  63.4040 130.8331 0111000  36.9642 323.0358 13.40653394    02
Epoch (UTC): 13 September 2014 18:46:41
Eccentricity: 0.0111000
inclination: 63.4040°
perigee height: 1024 km
apogee height: 1190 km
right ascension of ascending node: 130.8331°
argument of perigee: 36.9642°
revolutions per day: 13.40653394
mean anomaly at epoch: 323.0358°
orbit number at epoch: 0

The dashed part of the orbit path shows where the satellite is in the earth's shadow,  

DLR